Location: Hungerford
(51.4167°N, 1.5167°W)
Time: 04:44:35
(UTC+00:00)

ATLAS CENTAUR R/B - Pass Details

Date: 18 September 2020
Orbit: 479 x 667 km, 64.7° (Epoch: 12 October)

Event Time Altitude Azimuth Distance (km) Brightness Sun altitude
Rises 21:07:06 0° 303° (WNW) 2,596 6.1 -25.8°
Reaches altitude 10° 21:10:51 10° 341° (NNW) 1,684 4.6 -26.2°
Maximum altitude 21:11:55 11° 358° (N) 1,617 4.2 -26.4°
Drops below altitude 10° 21:12:59 10° 14° (NNE) 1,673 4.1 -26.5°
Enters shadow 21:13:42 - 25° (NNE) 1,774 4.1 -26.6°
